SES-20

Last updated on Tue Sep 16 2025 00:02:50 GMT+0000 (Coordinated Universal Time)

1 53960U 22123A 25258.56412252 -.00000118 00000+0 00000+0 0 9991 2 53960 0.0161 140.7146 0001429 332.7899 341.2502 1.00270246 10777
UTC large
Height (km)
Speed (km/s)
/
Latitude / Longitude
Inclination (degrees)
Orbital Period (minutes)
Azimuth
Elevation
Range (km)
Doppler Factor

Next 0 passes for location: London (51.5072 / 0.1276)

Sorry there are no passes over London.